Overview Statistics Trail Chart Weather Telemetry Raw packets
 

This is the latest recevied weather packets stored in our database for station/object OE5RBO. If no packets are shown the sender has not sent any weather packets the latest 10 day(s).

<< 32 33 34 35 36 37 38 >>
Time Temp. Humidity Pressure Rain* Wind** Luminosity Snow
1788075075 21.67° C 77% 1018.5 hPa 0 mm - - -
1788074488 21.67° C 75% 1018.3 hPa 0 mm - - -
1788073874 22.22° C 74% 1018.3 hPa 0 mm - - -
1788073274 23.33° C 71% 1018.2 hPa 0 mm - - -
1788072674 22.22° C 74% 1018.1 hPa 0 mm - - -
1788071473 19.44° C 82% 1018.1 hPa 0 mm - - -
1788070878 19.44° C 87% 1018.2 hPa 0 mm - - -
1788070272 19.44° C 82% 1018.1 hPa 0 mm - - -
1788069672 18.33° C 87% 1018 hPa 0 mm - - -
1788069072 16.11° C 95% 1017.9 hPa 0 mm - - -
1788068471 15° C 98% 1018 hPa 0 mm - - -
1788067871 15° C 98% 1017.7 hPa 0 mm - - -
1788066670 13.89° C 99% 1017.7 hPa 0 mm - - -
1788066070 13.89° C 99% 1017.6 hPa 0 mm - - -
1788065470 13.33° C 99% 1017.6 hPa 0 mm - - -
1788064869 13.33° C 99% 1017.6 hPa 0 mm - - -
1788064269 13.33° C 99% 1017.6 hPa 0 mm - - -
1788063668 13.33° C 99% 1017.6 hPa 0 mm - - -
1788063068 13.33° C 99% 1017.6 hPa 0 mm - - -
1788061867 13.89° C 98% 1017.6 hPa 0 mm - - -
1788061267 13.89° C 98% 1017.7 hPa 0 mm - - -
1788060066 15° C 96% 1017.7 hPa 0 mm - - -
1788059466 15° C 97% 1017.6 hPa 0 mm - - -
1788058865 14.44° C 98% 1017.7 hPa 0 mm - - -
1788058265 14.44° C 97% 1017.7 hPa 0 mm - - -

* Rain since midnight (hover to see other rain measurements)
** Current wind speed in m/s (hover to see current wind gust speed)